GW0366 Weather Reports


Display with metric or nautical units.
time (UTC)temp
F
wind
direction
speed
MPH
gust
MPH
rain 1hr
in
rain 24hr
in
rain mn
in
humidity
%
barometer
mb
20260503190910 71 170 0.0 0.0 0.00 0.00 0.00 52 1018.6
20260503190408 69 197 0.0 0.0 0.00 0.00 0.00 56 1018.7
20260503185904 69 199 0.0 0.0 0.00 0.00 0.00 55 1018.7
20260503185400 68 199 0.0 0.0 0.00 0.00 0.00 55 1018.7
20260503184859 68 193 0.0 0.0 0.00 0.00 0.00 55 1018.5
20260503184356 66 190 0.0 0.0 0.00 0.00 0.00 58 1018.9
20260503183852 67 192 0.0 0.0 0.00 0.00 0.00 57 1018.7
20260503183349 68 202 0.0 0.0 0.00 0.00 0.00 58 1018.7
20260503182847 69 202 0.0 0.0 0.00 0.00 0.00 57 1018.9
20260503182346 69 204 0.0 0.0 0.00 0.00 0.00 54 1019.2
20260503181842 70 199 0.0 0.0 0.00 0.00 0.00 52 1019.0
20260503181339 70 198 0.0 0.0 0.00 0.00 0.00 54 1018.9
20260503180836 72 195 1.0 3.0 0.00 0.00 0.00 51 1018.9
20260503180334 71 204 0.0 1.0 0.00 0.00 0.00 56 1019.2
20260503175830 68 194 1.0 2.0 0.00 0.00 0.00 55 1019.1
20260503175328 69 199 0.0 0.0 0.00 0.00 0.00 54 1019.1
20260503174823 71 201 0.0 0.0 0.00 0.00 0.00 55 1019.0
20260503174322 71 211 0.0 0.0 0.00 0.00 0.00 56 1018.9
20260503173817 70 221 0.0 0.0 0.00 0.00 0.00 55 1019.0
20260503173314 70 210 0.0 0.0 0.00 0.00 0.00 59 1019.0
20260503172810 70 235 0.0 0.0 0.00 0.00 0.00 59 1019.2
20260503172308 70 221 0.0 0.0 0.00 0.00 0.00 57 1019.1
20260503171804 69 225 0.0 0.0 0.00 0.00 0.00 58 1019.0
20260503171301 68 211 0.0 0.0 0.00 0.00 0.00 57 1019.0
20260503170758 69 211 0.0 0.0 0.00 0.00 0.00 56 1019.3
20260503170254 70 220 0.0 0.0 0.00 0.00 0.00 55 1019.2
20260503160217 65 345 0.0 0.0 0.00 0.00 0.00 53 1019.6
20260503150647 63 357 0.0 0.0 0.00 0.00 0.00 61 1019.5
20260503150143 63 347 0.0 0.0 0.00 0.00 0.00 65 1019.5
20260503140107 60 351 0.0 0.0 0.00 0.00 0.00 76 1019.1
20260503131037 58 357 0.0 0.0 0.00 0.00 0.00 90 1018.9
20260503130534 57 350 0.0 0.0 0.00 0.00 0.00 91 1019.0
20260503110424 51 1 0.0 0.0 0.00 0.00 0.00 99 1018.0
20260503090315 51 1 0.0 0.0 0.00 0.00 0.00 98 1016.3
20260503081243 52 1 0.0 0.0 0.00 0.00 0.00 98 1015.9
20260503080738 52 1 0.0 0.0 0.00 0.00 0.00 98 1016.1
20260503080236 52 1 0.0 0.0 0.00 0.00 0.00 98 1016.1
20260503072712 53 1 0.0 0.0 0.00 0.00 0.00 97 1015.7
20260503072209 53 1 0.0 0.0 0.00 0.00 0.00 97 1015.3
20260503071706 53 1 0.0 0.0 0.00 0.00 0.00 97 1015.8
20260503071203 53 1 0.0 0.0 0.00 0.00 0.00 97 1015.8
20260503070659 53 1 0.0 0.0 0.00 0.00 0.00 97 1015.6
20260503070158 53 1 0.0 0.0 0.00 0.00 0.00 97 1015.4
20260503060121 54 357 0.0 0.0 0.00 0.00 0.00 96 1015.4
20260503055114 54 348 0.0 0.0 0.00 0.00 0.00 96 1015.7
20260503054609 54 346 0.0 0.0 0.00 0.00 0.00 96 1015.5
20260503054106 54 346 0.0 0.0 0.00 0.00 0.00 96 1015.4
20260503053604 54 346 0.0 0.0 0.00 0.00 0.00 96 1015.4
20260503053102 54 347 0.0 0.0 0.00 0.00 0.00 96 1015.2
20260503052558 54 4 0.0 0.0 0.00 0.00 0.00 96 1015.3
20260503052055 55 4 0.0 0.0 0.00 0.00 0.00 96 1015.4
20260503051550 55 354 0.0 0.0 0.00 0.00 0.00 96 1015.2
20260503051048 55 4 0.0 0.0 0.00 0.00 0.00 96 1015.2
20260503050544 55 9 0.0 0.0 0.00 0.00 0.00 96 1015.3
20260503050041 54 0 0.0 0.0 0.00 0.00 0.00 96 1015.2
20260503045538 54 355 0.0 0.0 0.00 0.00 0.00 96 1015.0
20260503045035 54 338 0.0 0.0 0.00 0.00 0.00 97 1014.9
20260503044532 55 356 0.0 0.0 0.00 0.00 0.00 97 1014.8
20260503044030 55 356 0.0 0.0 0.00 0.00 0.00 97 1014.9
20260503043526 55 356 0.0 0.0 0.00 0.00 0.00 97 1014.7
20260503043022 55 346 0.0 0.0 0.00 0.00 0.00 97 1014.9
20260503042519 55 348 0.0 0.0 0.00 0.00 0.00 97 1014.8
20260503042015 55 356 0.0 0.0 0.00 0.00 0.00 97 1015.0
20260503041513 55 356 0.0 0.0 0.00 0.00 0.00 97 1014.5
20260503041011 55 33 0.0 0.0 0.00 0.00 0.00 97 1014.5
20260503040508 55 20 0.0 0.0 0.00 0.00 0.00 97 1014.4
20260503040005 55 21 0.0 0.0 0.00 1.25 1.25 97 1014.3
20260503035501 55 21 0.0 0.0 0.00 1.25 1.25 97 1014.1
20260503034959 55 22 0.0 0.0 0.00 1.25 1.25 97 1014.2
20260503034456 55 22 0.0 0.0 0.00 1.25 1.25 96 1014.2
20260503033953 55 22 0.0 0.0 0.00 1.25 1.25 96 1014.3
20260503033450 56 22 0.0 0.0 0.00 1.25 1.25 96 1014.3
20260503032949 56 359 0.0 0.0 0.00 1.25 1.25 96 1014.2
20260503032447 56 357 0.0 0.0 0.00 1.25 1.25 96 1014.0
20260503031944 56 359 0.0 0.0 0.00 1.25 1.25 96 1013.9
20260503031442 56 356 0.0 0.0 0.00 1.25 1.25 96 1014.0
20260503030938 56 356 0.0 0.0 0.00 1.25 1.25 96 1013.9
20260503030434 56 356 0.0 0.0 0.00 1.25 1.25 96 1013.6
20260503025931 56 356 0.0 0.0 0.00 1.25 1.25 95 1013.9
20260503025428 57 356 0.0 0.0 0.00 1.25 1.25 95 1013.7
20260503024926 57 356 0.0 0.0 0.00 1.25 1.25 95 1013.6
20260503024422 57 356 0.0 0.0 0.00 1.25 1.25 95 1013.8
20260503023920 56 356 0.0 0.0 0.00 1.25 1.25 95 1013.7
20260503023417 56 356 0.0 0.0 0.00 1.25 1.25 95 1013.5
20260503022913 56 356 0.0 0.0 0.00 1.25 1.25 96 1013.3
20260503022408 56 355 0.0 0.0 0.00 1.25 1.25 96 1013.2
20260503021904 56 356 0.0 0.0 0.00 1.25 1.25 96 1013.0
20260503021401 56 359 0.0 0.0 0.00 1.25 1.25 96 1013.1
20260503020858 56 356 0.0 0.0 0.00 1.25 1.25 96 1013.1
20260503020356 56 359 0.0 0.0 0.00 1.25 1.25 96 1013.1
20260503015852 56 348 0.0 0.0 0.00 1.25 1.25 96 1012.8
20260503015349 56 340 0.0 0.0 0.00 1.25 1.25 97 1012.9
20260503014844 56 352 0.0 0.0 0.00 1.25 1.25 97 1012.6
20260503014343 56 359 0.0 0.0 0.00 1.25 1.25 97 1012.6
20260503013840 56 356 0.0 0.0 0.00 1.25 1.25 97 1012.4
20260503013337 56 356 0.0 0.0 0.00 1.25 1.25 97 1012.1
20260503012834 56 359 0.0 0.0 0.00 1.25 1.25 98 1012.5
20260503012332 56 351 0.0 0.0 0.00 1.25 1.25 98 1012.5
20260503011828 56 4 0.0 0.0 0.00 1.25 1.25 98 1012.4
20260503011325 56 341 0.0 0.0 0.00 1.25 1.25 99 1012.5
20260503010821 56 1 0.0 0.0 0.00 1.25 1.25 99 1012.7
20260503010319 56 344 0.0 0.0 0.00 1.25 1.25 99 1012.8
20260503005815 56 2 0.0 0.0 0.00 1.25 1.25 99 1012.5
20260503005313 56 359 0.0 0.0 0.00 1.25 1.25 99 1012.5
20260503004809 56 359 0.0 0.0 0.00 1.25 1.25 99 1012.2
20260503004307 56 359 1.0 2.0 0.00 1.25 1.25 99 1012.3
20260503003804 56 356 0.0 0.0 0.00 1.25 1.25 99 1012.0
20260503003301 56 346 0.0 0.0 0.00 1.25 1.25 99 1012.0
20260503002757 56 351 0.0 0.0 0.00 1.25 1.25 99 1011.8
20260503002254 56 356 0.0 0.0 0.00 1.25 1.25 99 1011.6
20260503001750 56 5 0.0 0.0 0.00 1.25 1.25 99 1011.8
20260503001247 56 5 0.0 0.0 0.00 1.25 1.25 99 1011.5
20260503000745 56 6 2.0 2.0 0.00 1.25 1.25 99 1011.7
20260503000242 56 0 1.0 2.0 0.00 1.25 1.25 99 1011.8
20260502235739 56 1 0.0 1.0 0.00 1.25 1.25 99 1011.7
20260502235237 56 6 2.0 2.0 0.00 1.25 1.25 99 1011.5
20260502234733 56 359 0.0 1.0 0.00 1.25 1.25 99 1011.5
20260502234231 56 355 0.0 0.0 0.00 1.25 1.25 99 1011.4
20260502233726 56 5 0.0 0.0 0.00 1.25 1.25 99 1011.3
20260502233223 56 357 1.0 1.0 0.00 1.25 1.25 99 1011.4
20260502232719 56 0 1.0 2.0 0.00 1.25 1.25 99 1011.1
20260502232216 56 2 0.0 1.0 0.00 1.25 1.25 99 1010.8
20260502231713 56 350 0.0 1.0 0.00 1.25 1.25 99 1010.9
20260502231211 56 4 1.0 2.0 0.00 1.25 1.25 99 1010.8
20260502230709 56 0 1.0 2.0 0.00 1.25 1.25 99 1010.8
20260502230207 56 13 4.0 6.0 0.00 1.25 1.25 99 1010.9
20260502225702 56 6 1.0 2.0 0.00 1.25 1.25 99 1010.5
20260502225200 57 348 0.0 1.0 0.00 1.25 1.25 99 1010.9
20260502224656 57 0 1.0 2.0 0.00 1.25 1.25 99 1010.6
20260502224153 56 4 0.0 0.0 0.00 1.25 1.25 99 1010.8
20260502223651 56 5 5.0 6.0 0.00 1.25 1.25 99 1010.8
20260502223149 56 350 2.0 2.0 0.00 1.25 1.25 99 1010.6
20260502222646 56 345 3.0 5.0 0.00 1.25 1.25 99 1010.7
20260502222143 57 6 3.0 3.0 0.00 1.25 1.25 99 1010.7
20260502221638 57 338 2.0 2.0 0.00 1.25 1.25 99 1010.8
20260502221136 57 0 2.0 2.0 0.00 1.25 1.25 99 1010.4
20260502220632 57 9 0.0 0.0 0.00 1.25 1.25 99 1010.7
20260502220128 57 1 0.0 0.0 0.00 1.25 1.25 99 1010.4
20260502215625 57 350 0.0 1.0 0.00 1.25 1.25 99 1010.4
20260502215122 57 26 1.0 2.0 0.00 1.25 1.25 99 1010.3
20260502214619 57 3 1.0 2.0 0.00 1.25 1.25 99 1010.2
20260502214116 57 345 0.0 0.0 0.00 1.25 1.25 99 1010.1
20260502213614 57 2 2.0 2.0 0.00 1.25 1.25 99 1010.2
20260502213111 57 359 3.0 3.0 0.00 1.25 1.25 99 1010.1
20260502212610 57 358 0.0 1.0 0.00 1.25 1.25 99 1010.1
20260502212108 57 356 2.0 3.0 0.00 1.25 1.25 99 1009.8
20260502211602 57 339 2.0 3.0 0.00 1.25 1.25 99 1009.6
20260502211059 57 1 1.0 1.0 0.00 1.25 1.25 99 1009.3
20260502210557 57 12 1.0 1.0 0.00 1.25 1.25 99 1009.5
20260502210054 57 2 2.0 2.0 0.00 1.25 1.25 99 1009.6
20260502205550 57 2 2.0 3.0 0.00 1.25 1.25 99 1009.5
20260502205048 57 2 1.0 2.0 0.00 1.25 1.25 99 1009.4
20260502204544 57 3 1.0 2.0 0.00 1.25 1.25 99 1009.3
20260502204042 58 358 4.0 5.0 0.00 1.25 1.25 99 1009.2
20260502203539 58 2 0.0 0.0 0.00 1.25 1.25 99 1009.1
20260502203036 58 358 1.0 1.0 0.07 1.25 1.25 99 1009.3
20260502202532 58 356 3.0 3.0 0.07 1.25 1.25 99 1009.3
20260502202030 58 354 0.0 0.0 0.00 1.24 1.24 99 1009.4
20260502201526 58 359 4.0 6.0 0.00 1.24 1.24 99 1009.0
20260502201022 58 344 2.0 3.0 0.00 1.24 1.24 99 1008.9
20260502200518 59 0 0.0 0.0 0.00 1.24 1.24 99 1008.7
20260502200017 59 341 0.0 0.0 0.00 1.24 1.24 99 1009.2
20260502195514 59 354 0.0 0.0 0.05 1.24 1.24 99 1009.3
20260502195009 59 7 0.0 1.0 0.05 1.24 1.24 99 1009.1
20260502194507 59 354 0.0 1.0 0.12 1.23 1.23 99 1009.1
20260502194003 60 338 0.0 0.0 0.24 1.23 1.23 99 1009.0
20260502193500 60 357 0.0 0.0 0.19 1.21 1.21 99 1009.1
20260502192956 60 348 0.0 0.0 0.07 1.19 1.19 99 1009.2
20260502192452 60 350 0.0 0.0 0.05 1.18 1.18 99 1009.3
20260502191949 60 351 0.0 0.0 0.12 1.18 1.18 99 1009.4
20260502191447 60 351 0.0 0.0 0.14 1.17 1.17 99 1009.3